Wind_Speed
27 28 28 28 27 27 29 31 33 33 33 34 36 36 37 39 40 39 39 39 38 36 33 29 26 24 24 23 20 18 18 20 26 31 32 33 32 31 30 30 30 29
28 29 30 30 28 27 27 29 33 35 36 36 37 38 39 40 42 42 41 40 40 39 37 34 30 27 26 24 21 24 30 32 34 36 38 37 33 31 31 31 30 29
29 30 31 30 29 27 26 27 30 34 38 39 39 40 40 41 43 44 44 42 41 40 39 37 34 31 29 27 25 28 34 37 36 35 35 34 31 29 29 29 29 29
32 32 32 30 29 27 26 27 28 31 36 41 42 42 43 43 44 45 46 45 43 41 39 38 37 34 32 30 29 31 34 35 35 34 34 34 31 28 27 27 27 28
34 34 33 31 30 29 28 27 27 29 33 39 43 45 45 45 45 46 47 47 46 44 41 39 38 37 35 33 32 33 34 34 35 35 35 34 32 30 29 28 28 28
34 34 33 33 32 32 30 29 28 28 31 36 42 46 47 47 47 48 48 49 49 48 45 41 39 38 37 36 34 35 36 35 35 35 36 35 33 33 33 31 30 31
35 35 35 35 35 34 34 32 31 30 30 33 39 45 48 49 49 50 50 51 50 50 49 45 42 40 40 39 37 37 39 36 34 35 37 36 35 36 35 34 33 33
38 38 37 38 38 37 36 35 34 33 32 32 35 41 46 49 50 51 52 53 52 52 52 50 46 43 43 42 40 40 41 39 35 35 37 38 37 37 37 35 35 34
42 42 41 40 40 39 38 37 36 36 35 34 35 37 43 47 50 52 54 55 55 54 54 53 51 47 45 45 44 43 44 42 39 38 39 40 40 40 39 38 37 36
45 44 44 43 42 40 39 38 37 36 36 36 36 36 39 45 49 52 54 56 58 57 56 56 55 51 49 48 47 46 46 45 43 41 42 43 43 42 42 41 40 39
46 45 44 44 43 42 40 39 38 37 36 36 36 36 37 42 47 51 53 56 59 60 59 59 58 55 52 51 50 49 49 48 46 43 43 45 45 44 43 43 42 41
46 45 44 43 42 42 41 41 40 39 38 37 36 36 37 39 43 49 53 55 59 62 62 61 61 60 56 54 53 52 52 51 49 46 45 46 47 46 45 44 43 42
46 45 44 43 42 42 42 42 41 41 40 40 39 37 37 37 40 45 50 55 58 62 64 64 63 63 60 58 56 55 55 54 52 48 48 49 48 47 46 45 44 43
47 47 46 45 44 44 43 42 42 41 41 41 41 40 38 38 39 41 47 53 58 61 65 66 66 66 65 62 59 57 57 57 55 51 50 51 51 49 47 46 45 44
46 46 45 44 44 44 43 42 42 41 41 42 42 42 41 40 40 41 44 50 56 61 64 67 68 69 68 65 62 60 59 59 58 54 52 52 53 51 48 47 46 45
43 43 43 44 44 44 43 43 43 42 42 42 43 44 44 43 42 42 44 48 53 59 64 67 69 71 71 69 66 63 62 61 60 58 55 53 54 53 51 49 48 47
41 41 42 43 44 44 44 44 44 44 43 42 42 43 44 45 45 45 45 46 50 56 62 67 70 72 73 72 69 66 64 63 62 61 58 55 54 55 55 52 50 49
42 42 43 44 44 44 44 44 44 44 44 43 42 42 42 44 46 46 46 47 49 53 59 65 70 73 75 75 72 69 67 65 64 63 61 58 56 57 58 55 52 50
45 45 45 45 45 45 44 44 43 43 43 43 43 42 42 43 44 45 47 48 49 51 56 62 68 73 76 77 75 72 69 67 66 65 63 61 58 58 60 59 56 53
47 47 47 47 46 45 44 44 43 42 42 42 42 42 43 43 44 45 46 48 49 50 54 59 65 72 76 78 78 75 72 69 67 67 65 63 61 60 61 61 58 55
49 48 48 48 47 46 45 44 42 42 42 41 40 41 43 43 44 45 46 47 48 49 51 56 62 69 74 78 80 78 75 71 69 69 68 66 63 62 62 62 61 58
51 50 50 49 49 48 46 45 43 42 41 40 39 41 42 43 44 45 46 47 47 48 49 53 59 65 70 76 80 80 77 74 72 71 70 68 66 64 64 64 63 62
52 51 51 50 49 48 47 45 44 42 41 39 39 41 42 42 43 44 44 44 45 45 46 49 54 60 66 72 78 81 80 77 75 74 73 71 69 67 65 64 64 64
52 51 51 50 49 48 46 45 43 41 39 38 38 40 41 40 40 41 41 41 41 42 43 46 50 55 60 67 73 79 81 80 78 76 75 73 72 70 68 66 65 65
52 51 50 49 48 47 45 44 42 40 38 37 37 37 38 38 37 37 38 38 38 39 41 43 47 51 55 61 68 74 79 82 81 79 77 76 75 72 70 68 67 65
51 50 49 48 46 45 44 43 40 38 37 36 35 34 34 35 34 34 35 36 37 38 40 41 43 47 50 55 62 69 75 80 83 82 80 79 78 75 73 70 68 67
Wind_Direction
285 284 284 286 284 279 273 269 264 259 251 246 244 244 243 239 236 234 233 234 236 237 237 236 239 244 246 241 240 244 243 234 228 226 228 231 235 240 242 242 243 241
285 284 285 285 285 281 274 268 264 261 256 249 244 242 242 240 238 236 235 235 235 235 236 235 236 241 244 239 233 232 232 230 227 223 222 225 227 232 236 236 233 229
287 286 286 285 284 282 276 268 263 261 258 253 248 243 241 240 238 237 235 235 235 234 234 233 233 236 240 237 231 231 231 229 227 223 223 226 228 232 235 231 223 218
290 289 288 286 284 282 277 269 262 259 257 255 251 246 242 239 238 237 236 235 234 234 233 232 231 231 234 233 230 232 232 228 225 222 222 225 226 225 224 220 215 210
290 290 289 287 286 284 279 272 264 257 254 253 252 249 244 240 238 236 236 235 234 234 234 232 230 229 230 229 228 231 232 227 223 222 222 222 219 212 207 205 205 204
289 289 289 289 288 286 282 276 270 261 253 249 249 249 246 242 238 236 235 235 234 234 234 232 230 227 227 227 226 228 230 227 221 221 222 219 211 205 201 199 201 201
291 290 290 289 288 287 284 281 276 268 258 249 246 247 247 244 239 235 234 234 234 233 233 232 230 227 225 225 224 225 228 226 218 217 221 217 208 204 202 200 201 202
294 293 291 289 288 286 284 282 279 275 267 257 248 245 245 245 241 236 233 232 233 233 232 231 230 227 223 223 223 223 225 224 217 215 217 215 208 205 204 203 204 206
293 292 291 289 288 285 283 280 278 275 271 265 256 247 243 243 242 238 233 231 231 232 231 231 230 227 223 222 222 223 224 223 219 215 215 214 210 207 206 206 206 208
291 290 290 289 288 286 284 281 277 274 271 266 260 252 244 241 242 240 235 231 229 230 230 230 229 226 223 221 221 223 225 224 221 216 215 214 212 209 209 208 209 210
288 288 287 286 286 286 285 284 282 279 274 268 262 255 247 241 240 240 238 233 229 229 229 229 228 226 223 221 221 222 224 225 222 216 214 214 213 212 211 209 210 211
288 287 285 285 285 285 286 285 284 282 278 273 266 259 252 244 239 238 238 236 231 228 228 227 226 225 223 221 220 222 223 225 222 216 212 214 215 213 211 210 210 212
288 288 288 287 287 286 285 284 282 280 277 274 270 265 258 251 243 238 237 237 234 229 227 226 225 225 223 221 220 221 222 224 223 217 212 213 216 214 211 209 209 211
287 287 287 287 286 284 283 281 279 277 275 273 271 268 263 257 250 242 237 235 234 232 228 226 224 224 223 221 220 220 221 223 223 220 214 212 215 215 212 210 209 210
284 284 284 283 283 282 282 281 279 277 275 273 271 269 266 261 255 248 241 235 233 232 229 226 224 223 222 221 220 219 220 221 223 221 216 212 213 214 213 211 211 211
282 283 284 284 284 284 284 283 281 279 276 273 271 269 266 264 259 253 246 239 234 232 230 228 225 223 222 220 219 219 219 220 221 221 218 214 213 215 215 214 213 212
286 286 286 286 286 286 285 284 283 282 279 276 272 268 265 263 261 257 251 243 236 232 231 229 226 223 222 220 219 219 218 218 220 220 219 216 214 215 217 216 214 213
292 291 290 289 288 287 286 284 283 282 280 278 275 271 266 261 259 256 253 247 240 234 231 229 227 225 222 220 220 219 218 217 218 220 219 217 214 215 217 217 215 215
295 294 292 291 289 288 287 285 284 281 279 277 274 271 268 263 259 256 253 249 243 237 233 230 228 226 223 221 220 219 218 217 217 219 219 217 215 214 216 218 217 216
295 294 293 292 291 290 288 287 285 282 279 276 273 271 267 264 260 257 253 250 246 240 235 231 229 227 224 221 220 219 218 217 217 218 219 218 216 214 215 217 217 217
297 296 295 294 293 292 290 289 286 283 280 277 274 271 267 264 261 258 255 251 247 242 237 233 230 228 225 222 220 219 219 217 216 217 218 218 217 214 214 216 217 217
298 298 297 296 295 294 292 291 289 286 283 280 276 272 267 264 262 259 256 253 250 245 240 236 232 229 226 224 221 220 219 218 216 217 218 218 217 216 215 216 217 218
299 298 298 297 296 295 294 292 290 288 285 281 276 272 268 265 262 260 258 256 253 248 243 239 235 231 228 225 222 220 219 218 217 217 217 218 218 217 216 216 218 219
299 299 298 297 296 296 294 293 291 288 285 280 275 271 269 267 264 262 260 257 254 251 246 241 238 234 229 227 224 221 219 219 218 217 217 218 218 218 217 217 218 219
299 299 298 297 296 295 294 292 290 287 283 278 273 271 269 268 265 262 260 257 253 251 247 242 239 236 231 227 225 223 220 218 218 218 217 218 218 219 218 218 218 219
298 297 296 296 295 294 292 290 288 285 281 276 273 271 269 267 264 261 258 255 252 249 246 242 238 236 232 227 225 224 221 218 218 218 218 218 218 219 219 219 218 219
Height
10891 10891 10891 10891 10890 10890 10890 10889 10890 10891 10892 10894 10894 10895 10896 10897 10899 10900 10901 10902 10903 10904 10906 10908 10909 10909 10910 10912 10912 10910 10908 10909 10912 10914 10916 10916 10917 10920 10922 10923 10924 10925
10888 10887 10887 10886 10886 10885 10885 10885 10884 10884 10886 10887 10888 10890 10891 10892 10893 10894 10896 10897 10898 10899 10901 10903 10904 10905 10905 10907 10907 10905 10903 10903 10904 10906 10908 10909 10910 10913 10916 10918 10919 10920
10883 10882 10882 10882 10881 10880 10880 10880 10879 10879 10879 10880 10882 10883 10884 10886 10887 10888 10890 10891 10893 10894 10896 10898 10900 10900 10901 10902 10904 10902 10899 10900 10903 10906 10909 10910 10911 10912 10914 10916 10917 10917
10876 10876 10876 10876 10876 10875 10875 10875 10875 10875 10874 10874 10875 10876 10878 10879 10881 10882 10884 10886 10887 10889 10891 10893 10895 10896 10897 10898 10899 10898 10897 10899 10902 10904 10906 10907 10909 10910 10912 10914 10915 10916
10870 10870 10870 10870 10869 10869 10869 10869 10870 10870 10869 10868 10868 10869 10870 10872 10874 10876 10878 10880 10881 10883 10886 10888 10890 10891 10893 10894 10895 10895 10894 10896 10898 10900 10901 10902 10905 10907 10908 10910 10912 10914
10864 10864 10863 10863 10863 10862 10862 10863 10863 10863 10863 10862 10861 10862 10863 10865 10867 10869 10871 10873 10875 10877 10880 10882 10885 10887 10888 10890 10891 10891 10891 10892 10894 10897 10898 10899 10901 10903 10904 10905 10907 10909
10858 10858 10857 10857 10856 10856 10855 10855 10856 10856 10856 10856 10855 10855 10856 10857 10860 10862 10864 10867 10869 10871 10873 10876 10879 10881 10883 10885 10887 10887 10887 10888 10891 10894 10895 10896 10898 10900 10901 10902 10904 10906
10851 10851 10851 10850 10850 10849 10849 10849 10848 10849 10849 10849 10849 10849 10849 10850 10852 10854 10857 10859 10862 10864 10867 10870 10873 10876 10878 10880 10882 10882 10882 10884 10887 10889 10890 10892 10895 10897 10899 10900 10902 10905
10844 10844 10843 10843 10842 10842 10842 10842 10842 10842 10842 10842 10842 10842 10843 10843 10844 10847 10849 10852 10855 10857 10860 10863 10866 10869 10872 10874 10876 10877 10878 10879 10882 10885 10887 10889 10891 10893 10895 10897 10899 10901
10837 10837 10836 10835 10834 10834 10834 10835 10835 10835 10835 10835 10835 10835 10836 10836 10837 10839 10841 10844 10847 10850 10853 10856 10859 10862 10865 10868 10870 10872 10873 10874 10877 10881 10883 10884 10887 10889 10891 10893 10895 10897
10830 10830 10829 10828 10827 10827 10826 10826 10826 10827 10827 10827 10827 10828 10828 10829 10830 10831 10834 10836 10839 10842 10845 10848 10851 10855 10858 10861 10864 10866 10867 10868 10871 10875 10878 10880 10882 10884 10886 10889 10891 10894
10823 10823 10823 10822 10821 10820 10819 10819 10819 10819 10819 10819 10819 10820 10821 10822 10823 10824 10826 10828 10831 10834 10836 10840 10843 10847 10851 10854 10857 10860 10861 10863 10866 10870 10873 10876 10878 10880 10882 10885 10887 10890
10817 10816 10815 10815 10814 10814 10813 10813 10812 10812 10811 10811 10811 10812 10813 10814 10816 10817 10819 10820 10822 10825 10828 10832 10835 10839 10843 10847 10850 10853 10855 10857 10860 10864 10868 10871 10873 10875 10878 10881 10883 10886
10811 10810 10809 10808 10808 10808 10807 10807 10806 10805 10805 10804 10804 10805 10806 10807 10808 10809 10811 10812 10814 10816 10820 10823 10827 10830 10834 10838 10842 10846 10849 10851 10855 10859 10862 10865 10868 10871 10874 10877 10879 10882
10807 10806 10805 10804 10803 10802 10801 10801 10800 10799 10798 10797 10797 10797 10798 10799 10800 10801 10802 10803 10805 10808 10811 10815 10818 10821 10825 10830 10834 10838 10842 10845 10848 10852 10857 10860 10863 10866 10869 10872 10875 10877
10804 10802 10800 10798 10797 10795 10794 10793 10792 10792 10791 10790 10790 10790 10790 10791 10792 10792 10793 10795 10797 10799 10802 10805 10809 10812 10816 10821 10826 10830 10834 10838 10842 10846 10850 10855 10859 10862 10865 10868 10870 10873
10798 10796 10794 10792 10790 10788 10787 10786 10785 10784 10783 10783 10783 10783 10782 10783 10783 10784 10785 10786 10788 10790 10793 10796 10800 10803 10808 10813 10818 10822 10827 10831 10835 10839 10843 10849 10853 10856 10859 10863 10866 10868
10790 10788 10786 10784 10782 10781 10780 10778 10777 10776 10775 10774 10774 10774 10774 10775 10774 10775 10776 10777 10779 10782 10784 10787 10790 10794 10799 10804 10809 10814 10819 10824 10828 10832 10836 10842 10847 10850 10854 10857 10861 10864
10781 10780 10778 10776 10774 10773 10772 10770 10769 10768 10767 10766 10766 10766 10766 10766 10766 10766 10767 10768 10770 10773 10775 10778 10781 10784 10789 10795 10801 10806 10812 10817 10822 10826 10830 10835 10840 10844 10848 10851 10855 10859
10773 10772 10770 10768 10766 10765 10763 10762 10761 10760 10759 10758 10758 10757 10757 10757 10757 10757 10758 10759 10761 10764 10766 10769 10771 10774 10780 10786 10792 10798 10804 10810 10815 10820 10823 10828 10833 10837 10841 10845 10849 10853
10765 10763 10761 10759 10757 10756 10755 10754 10753 10752 10751 10750 10750 10749 10748 10748 10748 10748 10749 10750 10752 10755 10758 10760 10762 10765 10771 10778 10784 10790 10796 10802 10808 10812 10816 10821 10825 10830 10834 10839 10842 10846
10757 10755 10753 10751 10749 10748 10746 10745 10745 10744 10743 10743 10742 10741 10739 10739 10739 10740 10741 10742 10743 10746 10749 10751 10753 10757 10762 10768 10774 10781 10788 10794 10800 10804 10809 10813 10818 10823 10827 10831 10835 10840
10749 10747 10745 10743 10741 10739 10738 10737 10736 10735 10735 10735 10734 10732 10731 10731 10732 10732 10733 10734 10736 10738 10741 10743 10745 10748 10753 10759 10765 10772 10779 10786 10792 10797 10802 10806 10810 10815 10820 10824 10828 10832
10742 10740 10737 10735 10733 10731 10730 10729 10728 10728 10728 10727 10726 10724 10723 10724 10724 10725 10725 10727 10729 10731 10733 10736 10737 10739 10745 10750 10756 10763 10771 10778 10784 10790 10795 10799 10803 10807 10812 10817 10821 10825
10735 10732 10730 10727 10725 10724 10722 10721 10720 10720 10720 10719 10718 10717 10717 10716 10717 10718 10719 10720 10722 10723 10725 10728 10729 10731 10737 10743 10748 10754 10762 10769 10776 10782 10787 10790 10794 10799 10804 10810 10815 10819
10728 10725 10723 10721 10719 10717 10715 10714 10713 10713 10712 10711 10711 10711 10711 10710 10711 10712 10712 10713 10715 10716 10718 10720 10722 10724 10729 10735 10740 10746 10753 10760 10767 10773 10777 10781 10786 10791 10797 10803 10808 10813